Location: Unspecified
(43.4680°N, 87.1740°E)
Time: 20:43:48
(UTC+00:00)

Cosmos 2341 Rocket - Pass Details

Date: 17 April 2021
Orbit: 969 x 1003 km, 82.9° (Epoch: 12 May)

Event Time Altitude Azimuth Distance (km) Brightness Sun altitude
Rises 19:15:44 0° 354° (N) 3,711 7.9 -33.8°
Reaches altitude 10° 19:18:17 10° 357° (N) 2,763 7.1 -33.6°
Enters shadow 19:24:01 65° 46° (NE) 1,093 4.3 -33.3°
